Date String (YYYY-MM-DD hh:mm:ss) UTC,Instrument flags,Ambient pressure (hPa),Sample flow (lpm),Bypass flow (lpm),Sample temperature (°C),Ambient temperature (°C),ASC tube jacket temperature (°C),LED temperature (°C),Box temperature (°C),Sample RH (%),Span deviation,Mass concentration (μg/m³),Mass concentration (μg/m³),Mass concentration (μg/m³)
DateTimeUTC,F1_M11,P_M11,Q1_M11,Q2_M11,T1_M11,T2_M11,T3_M11,T4_M11,T5_M11,U1_M11,ZSPAN_M11,X0_M11,X2_M11,X1_M11
2022-02-22 09:00:00,,0821.4,4.99,0.00,22.1,21.1,00.0,31.2,23.6,04.2,0000.0,0008.64,0003.84,0003.30
2022-02-22 09:01:00,,0821.4,5.00,0.00,22.0,20.7,00.0,31.1,23.5,04.2,0000.0,0008.98,0003.80,0003.30
2022-02-22 09:02:00,,0821.4,5.02,0.00,21.9,20.3,00.0,31.1,23.3,04.2,0000.0,0009.06,0003.79,0003.29
2022-02-22 09:03:00,,0821.4,5.00,0.00,21.8,20.7,00.0,31.0,23.3,04.2,0000.0,0008.74,0003.79,0003.30
2022-02-22 09:04:00,,0821.4,4.99,0.00,22.0,21.7,00.0,31.1,23.6,04.2,0000.0,0008.68,0003.80,0003.30
2022-02-22 09:05:00,,0821.5,5.00,0.00,22.1,22.6,00.0,31.1,23.9,04.2,0000.0,0008.76,0003.80,0003.29
2022-02-22 09:06:00,,0821.4,5.01,0.00,22.2,22.9,00.0,31.1,24.1,04.2,0000.0,0008.78,0003.79,0003.29
2022-02-22 09:07:00,,0821.3,4.99,0.00,22.2,22.5,00.0,31.1,24.0,04.2,0000.0,0009.05,0003.82,0003.30
2022-02-22 09:08:00,,0821.3,5.00,0.00,22.2,22.1,00.0,31.1,23.9,04.2,0001.7,0009.24,0003.85,0003.30
2022-02-22 09:09:00,,0821.3,5.01,0.00,22.1,21.8,00.0,31.1,23.7,04.2,0001.1,0009.12,0003.81,0003.29
2022-02-22 09:10:00,,0821.4,5.01,0.00,22.0,21.5,00.0,31.1,23.6,04.2,0000.0,0008.82,0003.79,0003.28
2022-02-22 09:11:00,,0821.4,5.00,0.00,22.0,21.3,00.0,31.1,23.5,04.2,0000.0,0008.08,0003.80,0003.29
2022-02-22 09:12:00,,0821.3,5.00,0.00,21.9,21.4,00.0,31.1,23.5,04.2,0000.0,0007.51,0003.81,0003.30
2022-02-22 09:13:00,,0821.3,4.99,0.00,22.0,22.2,00.0,31.1,23.7,04.2,0000.0,0007.17,0003.76,0003.30
2022-02-22 09:14:00,,0821.3,5.00,0.00,22.2,22.8,00.0,31.1,24.0,04.2,0000.0,0006.96,0003.73,0003.30
2022-02-22 09:15:00,,0821.2,5.00,0.00,22.2,22.6,00.0,31.1,24.1,04.1,0000.0,0006.85,0003.72,0003.30
2022-02-22 09:16:00,,0821.2,5.00,0.00,22.2,22.0,00.0,31.1,23.9,04.2,0000.0,0006.91,0003.74,0003.30
2022-02-22 09:17:00,,0821.3,5.00,0.00,22.1,21.4,00.0,31.1,23.7,04.2,0000.0,0007.00,0003.77,0003.30
2022-02-22 09:18:00,,0821.2,5.00,0.00,22.0,20.9,00.0,31.1,23.5,04.2,0000.0,0006.81,0003.77,0003.30
2022-02-22 09:19:00,,0821.1,4.99,0.00,21.9,20.6,00.0,31.0,23.4,04.2,0000.0,0006.76,0003.76,0003.31
2022-02-22 09:20:00,,0821.1,5.00,0.00,21.9,20.8,00.0,31.0,23.3,04.2,0000.0,0006.95,0003.77,0003.31
2022-02-22 09:21:00,,0821.1,5.01,0.00,22.0,21.7,00.0,31.0,23.6,04.2,0000.2,0007.15,0003.80,0003.32
2022-02-22 09:22:00,,0821.3,5.00,0.00,22.1,22.6,00.0,31.1,23.9,04.1,0000.2,0007.18,0003.83,0003.33
2022-02-22 09:23:00,,0821.3,5.00,0.00,22.2,23.0,00.0,31.1,24.1,04.1,0000.3,0007.33,0003.85,0003.33
2022-02-22 09:24:00,,0821.2,5.00,0.00,22.3,22.7,00.0,31.1,24.1,04.1,0000.7,0007.56,0003.87,0003.33
2022-02-22 09:25:00,,0821.1,5.01,0.00,22.2,22.3,00.0,31.1,23.9,04.1,-000.2,0007.69,0003.88,0003.33
2022-02-22 09:26:00,,0821.1,5.00,0.00,22.1,21.7,00.0,31.1,23.8,04.1,0000.0,0007.68,0003.85,0003.33
2022-02-22 09:27:00,,0821.1,5.00,0.00,22.1,21.1,00.0,31.1,23.6,04.1,0000.0,0007.55,0003.81,0003.32
2022-02-22 09:28:00,,0821.3,4.99,0.00,21.9,20.6,00.0,31.0,23.4,04.1,-000.9,0007.65,0003.80,0003.32
2022-02-22 09:29:00,,0821.4,5.01,0.00,21.9,20.8,00.0,31.0,23.3,04.1,0000.0,0007.80,0003.81,0003.31
2022-02-22 09:30:00,,0821.3,5.00,0.00,22.0,21.8,00.0,31.0,23.6,04.1,0000.0,0007.67,0003.83,0003.33
2022-02-22 09:31:00,,0821.1,5.00,0.00,22.1,22.6,00.0,31.1,23.9,04.1,0000.0,0007.48,0003.81,0003.33
2022-02-22 09:32:00,,0821.1,5.01,0.00,22.3,23.1,00.0,31.1,24.1,04.0,0000.0,0008.01,0003.77,0003.32
2022-02-22 09:33:00,,0821.1,5.00,0.00,22.3,22.6,00.0,31.1,24.1,04.0,0000.0,0008.07,0003.75,0003.31
2022-02-22 09:34:00,,0821.1,5.01,0.00,22.2,22.1,00.0,31.1,24.0,04.0,0000.0,0008.04,0003.75,0003.31
2022-02-22 09:35:00,,0821.1,4.99,0.00,22.2,21.6,00.0,31.1,23.8,04.0,0000.0,0007.95,0003.75,0003.31
2022-02-22 09:36:00,,0821.2,5.00,0.00,22.1,21.3,00.0,31.1,23.7,04.0,0000.0,0007.77,0003.75,0003.31
2022-02-22 09:37:00,,0821.4,4.99,0.00,22.1,21.0,00.0,31.1,23.6,04.0,0000.0,0007.82,0003.77,0003.32
2022-02-22 09:38:00,,0821.4,5.00,0.00,22.0,20.9,00.0,31.0,23.6,04.0,0000.0,0007.78,0003.77,0003.32
2022-02-22 09:39:00,,0821.4,5.00,0.00,22.0,21.0,00.0,31.0,23.5,04.1,0000.0,0007.69,0003.77,0003.33
2022-02-22 09:40:00,,0821.5,5.00,0.00,22.0,21.8,00.0,31.1,23.7,04.0,0000.0,0007.89,0003.75,0003.34
2022-02-22 09:41:00,,0821.4,5.00,0.00,22.2,22.7,00.0,31.1,24.0,04.0,0000.0,0008.27,0003.74,0003.33
2022-02-22 09:42:00,,0821.3,5.00,0.00,22.3,22.8,00.0,31.1,24.2,04.0,0000.0,0008.32,0003.76,0003.32
2022-02-22 09:43:00,,0821.3,5.01,0.00,22.3,22.4,00.0,31.1,24.1,04.0,0000.0,0007.77,0003.77,0003.32
2022-02-22 09:44:00,,0821.3,4.98,0.00,22.3,22.0,00.0,31.1,24.0,04.0,0000.0,0007.52,0003.75,0003.32
2022-02-22 09:45:00,,0821.4,5.00,0.00,22.2,21.6,00.0,31.1,23.9,04.0,0000.0,0007.64,0003.71,0003.31
2022-02-22 09:46:00,,0821.4,5.01,0.00,22.2,21.3,00.0,31.1,23.8,04.0,0000.0,0007.70,0003.71,0003.31
2022-02-22 09:47:00,,0821.4,4.99,0.00,22.1,21.1,00.0,31.1,23.7,04.0,0000.0,0007.75,0003.72,0003.31
2022-02-22 09:48:00,,0821.7,5.00,0.00,22.0,21.0,00.0,31.1,23.6,04.0,0000.0,0007.73,0003.70,0003.31
2022-02-22 09:49:00,,0821.9,5.01,0.00,22.0,21.4,00.0,31.1,23.7,04.0,0000.0,0007.81,0003.71,0003.30
2022-02-22 09:50:00,,0821.6,5.02,0.00,22.2,22.3,00.0,31.1,23.9,04.0,0000.0,0007.83,0003.73,0003.29
2022-02-22 09:51:00,,0821.1,5.01,0.00,22.3,23.0,00.0,31.1,24.1,04.0,0000.0,0007.53,0003.76,0003.29
2022-02-22 09:52:00,,0821.1,5.00,0.00,22.3,22.7,00.0,31.2,24.2,04.0,0000.0,0006.70,0003.72,0003.28
2022-02-22 09:53:00,,0821.4,4.98,0.00,22.3,22.3,00.0,31.2,24.1,04.0,0000.0,0007.37,0003.74,0003.29
2022-02-22 09:54:00,,0821.5,5.00,0.00,22.2,21.9,00.0,31.2,24.0,04.0,0000.0,0007.59,0003.73,0003.29
2022-02-22 09:55:00,,0821.4,5.00,0.00,22.2,21.6,00.0,31.1,23.9,04.0,0000.0,0007.78,0003.75,0003.29
2022-02-22 09:56:00,,0821.3,5.01,0.00,22.1,21.3,00.0,31.1,23.8,04.0,0000.0,0007.76,0003.81,0003.30
2022-02-22 09:57:00,,0821.1,5.01,0.00,22.1,21.0,00.0,31.1,23.7,04.1,0000.0,0007.83,0003.85,0003.30
2022-02-22 09:58:00,,0821.0,5.00,0.00,22.1,21.3,00.0,31.1,23.6,04.1,0000.0,0008.44,0003.86,0003.30
2022-02-22 09:59:00,,0821.2,4.99,0.00,22.2,22.2,00.0,31.1,23.9,04.0,0000.0,0008.61,0003.89,0003.30
